Simultaneous Nadir Overpasses (SNOs) Predictions

Prediction of SNOs between GOES-16 and NPP Satellite Orbit:

Table of predicted SNOs for the next 14.0 days since TLE Epoch: 7/1/2023
Index Date Time (GOES-16) GOES-16 Lat,Lon NPP Lat,Lon Distance(km) Time Diff (sec)
1 07/02/2023 06:40:01 -0.02, -75.20 0.60, -77.89 307.47 80
2 07/03/2023 06:21:17 -0.02, -75.20 -0.45, -73.38 208.67 80
3 07/04/2023 18:40:34 0.02, -75.20 -0.77, -78.68 396.59 80
4 07/05/2023 18:24:29 0.02, -75.21 0.23, -74.15 120.02 80
5 07/07/2023 06:43:38 -0.02, -75.22 0.95, -79.43 479.76 80
6 07/08/2023 06:27:34 -0.01, -75.23 -0.11, -74.91 37.46 80
7 07/10/2023 18:28:06 0.01, -75.26 -0.10, -75.68 48.84 80
8 07/11/2023 18:12:03 0.01, -75.27 0.96, -71.17 468.93 80
9 07/13/2023 06:31:11 -0.02, -75.30 0.22, -76.44 129.48 80
10 07/14/2023 06:15:06 -0.02, -75.32 -0.79, -71.91 388.37 80
